Regional Weather Roundup
Issued by NWS Sioux Falls, SD

Home | Current Version | Previous Version | Text Only | Print | Product List | Glossary On
Versions: 1 2 3 4 5 6 7 8 9 10 11 12 13 14 15 16 17 18 19 20 21 22 23 24 25 26 27 28 29 30 31 32 33 34 35 36 37 38 39 40 41 42 43 44 45 46 47 48 49 50
000
ASUS43 KFSD 180510
RWRFSD

WEATHER ROUNDUP FOR SE SOUTH DAKOTA/SW MINNESOTA/NW IOWA
NATIONAL WEATHER SERVICE SIOUX FALLS SD
1200 AM CDT FRI APR 18 2014

NOTE: "FAIR" INDICATES FEW OR NO CLOUDS BELOW 12,000 FEET WITH NO
SIGNIFICANT WEATHER AND OR OBSTRUCTIONS TO VISIBILITY.


SDZ038>040-050-052>070-180600-
SOUTHEAST SOUTH DAKOTA

CITY           SKY/WX    TMP DP  RH WIND       PRES   REMARKS
CHAMBERLAIN      N/A     37  26  64 SE17      30.14S
HURON          PTCLDY    37  27  67 SE14      30.20F
MADISON        CLOUDY    32  23  69 E12       30.24F WCI  23
MITCHELL       MOCLDY    38  25  59 SE13      30.21F
SIOUX FALLS    CLOUDY    36  26  67 E12       30.25F
WINNER         FAIR      36  23  59 SE14      30.09F
YANKTON        PTCLDY    39  27  60 E7        30.25S
$$

MNZ071-072-080-081-089-090-097-098-180600-
SOUTHWEST MINNESOTA

CITY           SKY/WX    TMP DP  RH WIND       PRES   REMARKS
FAIRMONT       CLEAR     30  27  86 CALM      30.33R
JACKSON        MOCLDY    32  28  86 NE6       30.30S WCI  26
LUVERNE        CLOUDY    34  30  86 E8        30.28S WCI  27
MARSHALL       PTCLDY    30  21  69 S5        30.29F WCI  25
MONTEVIDEO     CLEAR     28  23  80 SW5       30.31F WCI  23
PIPESTONE      CLOUDY    32  27  80 E7        30.26S WCI  26
REDWOOD FALLS  CLEAR     30  25  81 CALM      30.32R
TRACY          CLOUDY    31  28  85 CALM      30.30S
WINDOM         CLOUDY    30  28  93 CALM      30.30S
WORTHINGTON    MOCLDY    30  23  74 NE6       30.30S WCI  24
$$

IAZ001>003-012>014-020>022-031-032-NEZ013-014-SDZ071-180600-
NORTHWEST IOWA

CITY           SKY/WX    TMP DP  RH WIND       PRES   REMARKS
CHEROKEE       CLOUDY    36  29  76 CALM      30.29R
DENISON        PTCLDY    37  27  65 E5        30.27S
ESTHERVILLE    CLEAR     28  27  96 NE6       30.29S WCI  22
LE MARS        CLOUDY    41  28  60 E9        30.27S
ORANGE CITY    CLOUDY    39  28  65 E7        30.27S
SHELDON        CLOUDY    36  28  75 E9        30.27S
SIOUX CITY     CLEAR     39  26  59 E7        30.26S
SPENCER        CLEAR     30  26  85 E7        30.30R WCI  23
STORM LAKE     MOCLDY    36  30  80 E9        30.29S
$$

ABBREVIATIONS USED IN REMARKS
   TC - TEMPERATURE IN CELSIUS
  WCI - WIND CHILL INDEX
   HX - HEAT INDEX
  VSB - VISIBILITY




USA.gov is the U.S. government's official web portal to all federal, state and local government web resources and services.